Regional Weather Roundup
Issued by NWS

Home | Current Version | Previous Version | Text Only | Print | Product List | Glossary Off
Versions: 1 2 3 4 5 6 7 8 9 10 11 12 13 14 15 16 17 18 19 20 21 22 23 24 25 26 27 28 29 30 31 32 33 34 35 36 37 38 39 40 41 42 43 44 45 46 47 48 49 50

044
ASUS43 KLSX 291707
RWRMO

WEATHER SUMMARY FOR MISSOURI
NATIONAL WEATHER SERVICE SPRINGFIELD MO
1200 PM CDT WED MAR 29 2017

NOTE: "FAIR" INDICATES FEW OR NO CLOUDS BELOW 12,000 FEET WITH NO
       SIGNIFICANT WEATHER AND/OR OBSTRUCTIONS TO VISIBILITY.
       CURRENT SKY AND/OR WEATHER CONDITIONS ARE NOT AVAILABLE FOR
       CHILLICOTHE AND FARMINGTON.

MOZ001>031-035>038-043-044-053-054-291800-
...NORTHERN AND WESTERN MISSOURI...

CITY           SKY/WX    TMP DP  RH WIND       PRES   REMARKS
KANSAS CTY INT CLOUDY    50  48  93 E20G30    29.77F
KANSAS C DTWN  CLOUDY    51  49  92 E18       29.77F
LEE`S SUMMIT   CLOUDY    52  51  97 E16       29.78S
ST JOSEPH      CLOUDY    49  48  97 E12G21    29.80F
CHILLICOTHE      N/A     49  45  86 E15G25    29.88F
KIRKSVILLE     CLOUDY    47  47 100 E20G26    29.94F

$$
MOZ066>068-077>081-088>096-101>105-291800-
...SOUTHWEST MISSOURI...

CITY           SKY/WX    TMP DP  RH WIND       PRES   REMARKS
SPRINGFIELD    CLOUDY    63  57  81 SE25G33   29.74F
JOPLIN         PTSUNNY   67  59  75 SE18G30   29.68S
BRANSON        CLOUDY    59  59 100 E14G21    29.79F FOG

$$
MOZ032>034-039>042-045>050-055>058-069>072-291800-
...CENTRAL MISSOURI...

CITY           SKY/WX    TMP DP  RH WIND       PRES   REMARKS
COLUMBIA       CLOUDY    50  48  93 E20G29    29.91F
JEFFERSON CITY CLOUDY    55  49  80 E16G23    29.91F
ROLLA          CLOUDY    60  53  77 E15       29.90F
SEDALIA        CLOUDY    53  52  96 E18G25    29.84F
WHITEMAN AFB   LGT RAIN  52  52 100 E20G32    29.78F
WARRENSBURG    CLOUDY    50  50 100 E18G31    29.77F
OSAGE BEACH    CLOUDY    61  54  77 E9        29.86F

$$
MOZ051-052-059>065-291800-
...EAST CENTRAL MISSOURI...

CITY           SKY/WX    TMP DP  RH WIND       PRES   REMARKS
ST LOUIS INTL  CLOUDY    54  49  83 NE9G17    30.03F THUNDER
SPIRIT OF STL  CLOUDY    54  50  86 E16       30.00F
ST CHARLES     CLOUDY    52  50  93 NE12      30.03F

$$
MOZ072>076-082>087-097>100-106>115-291800-
...SOUTH CENTRAL AND SOUTHEAST MISSOURI...

CITY           SKY/WX    TMP DP  RH WIND       PRES   REMARKS
CAPE GIRARDEAU CLOUDY    64  54  69 SE9       30.00S
FARMINGTON     CLOUDY    60  53  77 SE15      29.97F
POPLAR BLUFF   MOSUNNY   65  58  78 E12       29.94F
WEST PLAINS    PTSUNNY   61  55  81 E10       29.88F

$$



USA.gov is the U.S. government's official web portal to all federal, state and local government web resources and services.